Weather reports worldwide

Advertisment
Sennybridge, United Kingdom (3507): temperature & dewpoint: 20.05.2019 19:00:00 - 26.05.2019 19:00:00 (BST)Sennybridge, United Kingdom (3507): temperature -20cm & temperature -100cm: 20.05.2019 19:00:00 - 26.05.2019 19:00:00 (BST)Sennybridge, United Kingdom (3507): wind speed: 20.05.2019 19:00:00 - 26.05.2019 19:00:00 (BST)Sennybridge, United Kingdom (3507): wind direction: 20.05.2019 19:00:00 - 26.05.2019 19:00:00 (BST)Sennybridge, United Kingdom (3507): reduced air pressure: 20.05.2019 19:00:00 - 26.05.2019 19:00:00 (BST)Sennybridge, United Kingdom (3507): visibility: 20.05.2019 19:00:00 - 26.05.2019 19:00:00 (BST)Sennybridge, United Kingdom (3507): precipitation: 20.05.2019 19:00:00 - 26.05.2019 19:00:00 (BST)
Date & Time tt [°C] td [°C] tt -20cm [°C] tt -100cm [°C] ff [km/h] ff [kn] dd ppp [hPa] vv [km] rr [mm]
26.05.2019 19:00:00 13,1 8,0 - - 4 2 NW 1013,6 35 0,0
26.05.2019 18:00:00 12,9 8,2 - - 5 3 NW 1013,7 27 0,0
26.05.2019 17:00:00 13,6 9,8 - - 5 3 NW 1013,6 35 0,0
26.05.2019 16:00:00 13,1 9,9 - - 8 4 NNW 1013,6 30 0,0
26.05.2019 15:00:00 13,6 12,2 - - 8 4 NW 1013,5 14 0,0
26.05.2019 14:00:00 13,8 12,7 - - 4 2 WNW 1013,2 40 0,0
26.05.2019 13:00:00 13,5 13,2 - - 8 4 W 1013,4 4,0 1,2
26.05.2019 12:00:00 13,5 13,3 - - 16 9 WSW 1013,7 2,4 2,0
26.05.2019 11:00:00 13,1 12,9 - - 21 11 WSW 1013,7 3,2 0,8
26.05.2019 10:00:00 12,5 12,3 14,2 11,2 26 14 SW 1014,0 20 2,8
26.05.2019 09:00:00 12,2 12,1 - - 24 13 SW 1014,3 3,5 0,6
26.05.2019 08:00:00 11,8 11,8 - - 22 12 SW 1014,7 5 0,4
26.05.2019 07:00:00 11,3 11,3 - - 24 13 SW 1015,0 1,1 0,0
26.05.2019 06:00:00 11,8 11,7 - - 18 10 WSW 1015,7 0,4 0,0
26.05.2019 05:00:00 11,9 11,8 - - 18 10 SW 1016,0 0,7 0,0
26.05.2019 04:00:00 11,8 11,7 - - 16 9 SW 1016,5 0,1 0,0
26.05.2019 03:00:00 11,4 11,3 - - 13 7 WSW 1017,0 0,1 0,0
26.05.2019 02:00:00 11,6 11,2 - - 15 8 SW 1017,6 3,6 0,0
26.05.2019 01:00:00 12,0 11,2 - - 9 5 SW 1018,2 12 0,0
26.05.2019 00:00:00 12,6 11,4 - - 9 5 SSW 1018,7 30 0,0
25.05.2019 23:00:00 13,2 12,1 - - 9 5 SW 1018,9 18 0,0
25.05.2019 22:00:00 13,3 11,4 - - 8 4 WSW 1019,0 50 0,0
25.05.2019 21:00:00 14,0 11,4 - - 9 5 W 1018,8 50 0,0
25.05.2019 20:00:00 14,8 11,1 - - 9 5 W 1018,8 35 0,0
25.05.2019 19:00:00 15,2 10,4 - - 8 4 W 1018,7 45 0,0
25.05.2019 18:00:00 15,7 11,9 - - 8 4 W 1018,7 30 0,0
25.05.2019 17:00:00 14,8 12,2 - - 13 7 W 1019,2 3,0 0,0
25.05.2019 16:00:00 14,9 12,0 - - - - - 1019,4 24 0,0
25.05.2019 15:00:00 15,4 12,4 - - 15 8 SW 1019,4 30 0,0
25.05.2019 14:00:00 15,9 11,2 - - 15 8 W 1019,3 30 0,0
25.05.2019 13:00:00 16,9 10,1 - - 11 6 W 1019,3 50 0,0
25.05.2019 12:00:00 16,9 11,8 - - 11 6 W 1019,6 45 0,0
25.05.2019 11:00:00 16,2 11,8 - - 11 6 WSW 1019,8 27 0,0
25.05.2019 10:00:00 15,4 11,6 14,0 11,2 9 5 WSW 1020,1 35 0,0
25.05.2019 09:00:00 14,2 11,1 - - 5 3 W 1020,1 40 0,0
25.05.2019 08:00:00 12,0 10,2 - - 8 4 SSW 1020,4 28 0,0
25.05.2019 07:00:00 9,7 9,5 - - 5 3 S 1020,5 18 0,0
25.05.2019 06:00:00 7,1 6,8 - - 2 1 SE 1020,6 11 0,0
25.05.2019 05:00:00 7,1 6,8 - - 5 3 S 1020,8 11 0,0
25.05.2019 04:00:00 6,8 6,4 - - 4 2 S 1020,7 11 0,0
25.05.2019 03:00:00 7,7 7,3 - - 8 4 S 1020,7 17 0,0
25.05.2019 02:00:00 7,1 6,8 - - 5 3 SE 1020,8 15 0,0
25.05.2019 01:00:00 6,4 5,8 - - 5 3 S 1021,1 12 0,0
25.05.2019 00:00:00 8,1 7,3 - - 8 4 S 1020,8 22 0,0
24.05.2019 23:00:00 10,4 8,6 - - 2 1 N 1020,6 50 0,0
24.05.2019 22:00:00 10,9 8,4 - - 2 1 E 1020,3 45 0,0
24.05.2019 21:00:00 13,2 9,5 - - 2 1 NW 1019,7 45 0,0
24.05.2019 20:00:00 13,8 9,7 - - 4 2 N 1019,5 35 0,0
24.05.2019 19:00:00 14,8 10,0 - - 5 3 NNW 1019,1 50 0,0
24.05.2019 18:00:00 16,4 10,4 - - 5 3 NNW 1018,8 50 0,0
24.05.2019 17:00:00 17,0 10,4 - - 5 3 NNW 1018,8 29 0,0
24.05.2019 16:00:00 17,0 10,8 - - 5 3 NW 1019,0 30 0,0
24.05.2019 15:00:00 17,1 11,2 - - 4 2 W 1018,9 45 0,0
24.05.2019 14:00:00 16,5 10,6 - - 4 2 NW 1019,1 35 0,0
24.05.2019 13:00:00 14,4 11,4 - - 8 4 WSW 1019,5 22 0,0
24.05.2019 12:00:00 14,1 10,9 - - 8 4 W 1019,4 30 0,0
24.05.2019 11:00:00 13,9 11,2 - - 15 8 WSW 1019,3 20 0,0
24.05.2019 10:00:00 12,6 10,4 13,9 11,0 11 6 WSW 1019,4 30 0,0
24.05.2019 09:00:00 11,0 9,7 - - 8 4 WSW 1019,5 13 0,0
24.05.2019 08:00:00 10,3 9,7 - - 9 5 SW 1019,3 8 0,0
24.05.2019 07:00:00 9,7 9,5 - - 5 3 SSW 1019,0 9 0,0
24.05.2019 06:00:00 8,1 8,1 - - 5 3 S 1019,0 5 0,0
24.05.2019 05:00:00 4,7 4,3 - - 4 2 SSE 1019,4 2,8 0,0
24.05.2019 04:00:00 7,0 6,6 - - 0 0 N 1018,9 5 0,0
24.05.2019 03:00:00 8,3 8,1 - - 2 1 WSW 1018,7 8 0,0
24.05.2019 02:00:00 7,1 6,8 - - 4 2 WSW 1018,7 3,6 0,0
24.05.2019 01:00:00 7,5 7,3 - - 5 3 SSW 1018,6 7 0,0
24.05.2019 00:00:00 6,4 5,9 - - 5 3 S 1018,5 9 0,0
23.05.2019 23:00:00 7,0 6,2 - - 4 2 S 1018,7 20 0,0
23.05.2019 22:00:00 7,6 5,5 - - 2 1 W 1018,6 45 0,0
23.05.2019 21:00:00 11,0 7,6 - - 2 1 NW 1017,7 50 0,0
23.05.2019 20:00:00 12,4 7,7 - - 8 4 NNW 1017,2 50 0,0
23.05.2019 19:00:00 13,4 6,8 - - 8 4 NW 1016,8 45 0,0
23.05.2019 18:00:00 14,7 7,3 - - 5 3 WNW 1016,4 30 0,0
23.05.2019 17:00:00 15,9 7,7 - - 5 3 W 1015,9 40 0,0
23.05.2019 16:00:00 16,6 6,5 - - 5 3 W 1015,8 45 0,0
23.05.2019 15:00:00 16,8 5,8 - - 13 7 WSW 1015,7 40 0,0
23.05.2019 14:00:00 15,5 5,5 - - 9 5 W 1016,2 35 0,0
23.05.2019 13:00:00 16,2 3,0 - - 8 4 WSW 1016,0 40 0,0
23.05.2019 12:00:00 16,5 7,3 - - 8 4 W 1016,3 35 0,0
23.05.2019 11:00:00 14,9 6,7 - - 11 6 W 1016,8 30 0,0
23.05.2019 10:00:00 14,0 3,8 13,7 11,0 5 3 SSW 1016,8 24 0,0
23.05.2019 09:00:00 12,0 2,6 - - 2 1 ENE 1017,2 45 0,0
23.05.2019 08:00:00 8,5 4,2 - - 2 1 NNE 1017,9 40 0,0
23.05.2019 07:00:00 5,1 2,0 - - 2 1 N 1018,3 50 0,0
23.05.2019 06:00:00 1,8 0,3 - - 0 0 N 1018,6 50 0,0
23.05.2019 05:00:00 1,0 -0,3 - - 0 0 N 1019,0 50 0,0
23.05.2019 04:00:00 1,2 -0,5 - - 2 1 NE 1019,2 50 0,0
23.05.2019 03:00:00 1,1 0,1 - - 0 0 N 1019,2 25 0,0
23.05.2019 02:00:00 3,8 2,6 - - 4 2 NNE 1019,2 35 0,0
23.05.2019 01:00:00 2,4 0,7 - - 0 0 N 1019,9 50 0,0
23.05.2019 00:00:00 3,9 1,3 - - 2 1 SSE 1019,7 50 0,0
22.05.2019 23:00:00 4,8 2,0 - - 4 2 SE 1019,8 50 0,0
22.05.2019 22:00:00 5,2 2,0 - - 2 1 ENE 1020,0 50 0,0
22.05.2019 21:00:00 10,3 3,3 - - 2 1 NE 1019,3 50 0,0
22.05.2019 20:00:00 13,3 5,5 - - 4 2 NNW 1018,6 50 0,0
22.05.2019 19:00:00 14,7 7,2 - - 9 5 W 1018,5 45 0,0
22.05.2019 18:00:00 15,6 6,2 - - 15 8 WSW 1018,4 35 0,0
22.05.2019 17:00:00 15,9 4,2 - - 15 8 SW 1018,7 50 0,0
22.05.2019 16:00:00 16,0 6,2 - - 13 7 WSW 1019,0 50 0,0
22.05.2019 15:00:00 15,8 3,9 - - 16 9 WSW 1019,3 29 0,0
22.05.2019 14:00:00 15,7 5,9 - - 16 9 SW 1019,5 50 0,0
22.05.2019 13:00:00 15,2 4,0 - - 11 6 W 1020,0 40 0,0
22.05.2019 12:00:00 14,5 3,8 - - 15 8 WSW 1020,1 35 0,0
22.05.2019 11:00:00 14,3 3,2 - - 8 4 W 1020,2 50 0,0
22.05.2019 10:00:00 12,7 4,7 13,5 10,9 13 7 WSW 1020,6 45 0,0
22.05.2019 09:00:00 12,5 3,7 - - 13 7 SW 1020,7 45 0,0
22.05.2019 08:00:00 10,1 5,2 - - 8 4 SSW 1021,1 45 0,0
22.05.2019 07:00:00 9,2 4,6 - - 4 2 S 1021,0 45 0,0
22.05.2019 06:00:00 6,3 3,6 - - 4 2 S 1021,2 50 0,0
22.05.2019 05:00:00 4,9 2,9 - - 4 2 S 1021,4 50 0,0
22.05.2019 04:00:00 4,1 2,4 - - 4 2 SW 1021,8 50 0,0
22.05.2019 03:00:00 4,9 2,5 - - 4 2 S 1021,9 45 0,0
22.05.2019 02:00:00 3,7 2,2 - - 4 2 SSE 1022,2 50 0,0
22.05.2019 01:00:00 4,0 2,4 - - 5 3 SE 1022,3 50 0,0
22.05.2019 00:00:00 4,0 1,8 - - 2 1 NNE 1022,3 50 0,0
21.05.2019 23:00:00 6,5 3,0 - - 5 3 ENE 1022,0 50 0,0
21.05.2019 22:00:00 6,7 2,0 - - 4 2 SSE 1022,0 50 0,0
21.05.2019 21:00:00 10,7 2,6 - - 4 2 NW 1021,3 50 0,0
21.05.2019 20:00:00 13,2 2,4 - - 4 2 NW 1020,6 50 0,0
21.05.2019 19:00:00 13,6 2,2 - - 5 3 NW 1020,6 50 0,0
21.05.2019 18:00:00 15,8 2,8 - - 8 4 NW 1020,2 50 0,0
21.05.2019 17:00:00 16,5 3,0 - - 8 4 WNW 1020,2 45 0,0
21.05.2019 16:00:00 16,9 2,9 - - 8 4 NW 1020,1 30 0,0
21.05.2019 15:00:00 17,5 3,0 - - 8 4 NW 1019,9 15 0,0
21.05.2019 14:00:00 17,5 2,4 - - 8 4 NNW 1019,7 50 0,0
21.05.2019 13:00:00 16,8 4,8 - - 5 3 NW 1019,6 30 0,0
21.05.2019 12:00:00 15,7 3,0 - - 9 5 N 1019,6 40 0,0
21.05.2019 11:00:00 15,7 5,8 - - 8 4 N 1019,6 45 0,0
21.05.2019 10:00:00 14,1 7,0 13,0 10,7 8 4 N 1019,8 35 0,0
21.05.2019 09:00:00 12,2 7,5 - - 5 3 N 1019,8 35 0,0
21.05.2019 08:00:00 9,6 9,3 - - 2 1 SE 1019,9 30 0,0
21.05.2019 07:00:00 6,4 6,3 - - 2 1 NNE 1020,3 12 0,0
21.05.2019 06:00:00 2,4 2,2 - - 2 1 NE 1020,3 1,5 0,0
21.05.2019 05:00:00 2,9 2,6 - - 2 1 ENE 1020,0 4,1 0,0
21.05.2019 04:00:00 2,4 2,1 - - 2 1 S 1020,1 9 0,0
21.05.2019 03:00:00 2,2 1,8 - - 2 1 ENE 1020,0 18 0,0
21.05.2019 02:00:00 2,2 1,5 - - 2 1 SSE 1019,7 16 0,0
21.05.2019 01:00:00 4,5 3,7 - - 2 1 NW 1019,1 40 0,0
21.05.2019 00:00:00 4,1 3,4 - - 2 1 NNE 1018,7 40 0,0
20.05.2019 23:00:00 5,0 3,8 - - 4 2 ENE 1018,5 35 0,0
20.05.2019 22:00:00 7,2 4,1 - - 4 2 ENE 1018,0 35 0,0
20.05.2019 21:00:00 9,4 5,1 - - 4 2 ENE 1017,0 50 0,0
20.05.2019 20:00:00 11,8 6,0 - - 4 2 NNW 1016,3 45 0,0
20.05.2019 19:00:00 13,4 4,2 - - 8 4 NW 1015,6 45 0,0

tt = temperature
td = dewpoint
tt -20cm = temperature -20cm
tt -100cm = temperature -100cm
ff = wind speed
dd = wind direction
ppp = reduced air pressure
vv = visibility
rr = precipitation

Next stations